Location: Gadern
(49.5873°N, 8.8138°E)
Time: 00:56:35
(UTC+00:00)

Cosmos 2322 Rocket - Pass Details

Date: 19 May 2025
Orbit: 832 x 850 km, 71.0° (Epoch: 15 June)

Event Time Altitude Azimuth Distance (km) Brightness Sun altitude
Rises 22:49:37 0° 331° (NNW) 3,417 6.6 -20.1°
Reaches altitude 10° 22:52:05 10° 333° (NNW) 2,475 5.7 -20.1°
Maximum altitude 22:57:47 80° 61° (ENE) 859 2.2 -20.2°
Enters shadow 23:00:18 35° 144° (SE) 1,335 2.8 -20.3°
